Regional Weather Roundup
Issued by NWS

Home | Current Version | Previous Version | Text Only | Print | Product List | Glossary On
Versions: 1 2 3 4 5 6 7 8 9 10 11 12 13 14 15 16 17 18 19 20 21 22 23 24 25 26 27 28 29 30 31 32 33 34 35 36 37 38 39 40 41 42 43 44 45 46 47 48 49 50
000
ASUS44 KFWD 240201
RWRTX
NORTH TEXAS HOURLY WEATHER ROUNDUP
NATIONAL WEATHER SERVICE FORT WORTH TX
900 PM CDT SAT SEP 23 2017

NOTE: "FAIR" INDICATES FEW OR NO CLOUDS BELOW 12,000 FEET WITH NO
SIGNIFICANT WEATHER AND/OR OBSTRUCTIONS TO VISIBILITY.

TXZ118-119-240300-
DALLAS/FORT WORTH METROPLEX

CITY           SKY/WX    TMP DP  RH WIND       PRES   REMARKS
DFW AIRPORT    PTCLDY    84  65  52 SE8       29.86R
DALLAS LOVE    CLEAR     86  64  47 SE12      29.87R
FTW MEACHAM    CLEAR     85  64  49 SE8       29.86R
DAL-EXECUTIVE  CLEAR     85  65  51 SE9       29.87R
FTW-ALLIANCE   PTCLDY    82  64  54 SE7       29.87R
FTW-NAS-JRB    CLEAR     86  60  41 SE7       29.87R
ARLINGTON      CLEAR     83  64  52 E7        29.87R
GRAND PRAIRIE  CLEAR     84  63  48 E3        29.88R
ADDISON        CLEAR     86  63  45 SE9       29.88R
MESQUITE       CLEAR     79  64  60 E5        29.89R
LANCASTER      CLEAR     84  64  50 SE7       29.89R
$$

TXZ091>094-102>105-117-120-121-131>134-240300-
NORTH CENTRAL TEXAS

CITY           SKY/WX    TMP DP  RH WIND       PRES   REMARKS
SHRMAN/DENISON PTCLDY    82  66  58 E10       29.90S
GAINESVILLE    CLEAR     80  64  58 E7        29.91R
BOWIE          CLEAR     76  64  65 E3        29.88S
BRIDGEPORT     CLEAR     79  62  57 SE3       29.89S
DENTON         CLEAR     82  65  56 SE7       29.87R
MCKINNEY       PTCLDY    81  69  67 SE7       29.89R
BONHAM         CLOUDY    77  67  70 SE9       29.91S
ROCKWALL       CLEAR     82  67  60 E6        29.89R
TERRELL        PTCLDY    82  64  54 E5        29.89R
WAXAHACHIE     CLEAR     83  64  51 SE3       29.89R
CLEBURNE       CLEAR     82  64  54 SE9       29.90R
GRANBURY       CLEAR     83  62  48 E6        29.88R
$$

TXZ083>090-098>101-113>116-127>130-139>142-154-155-240300-
WESTERN NORTH TEXAS

CITY           SKY/WX    TMP DP  RH WIND       PRES   REMARKS
WICHITA FALLS  CLOUDY    78  62  57 SE8       29.85S
WF-KICKAPOO    PTCLDY    81  64  55 E13G18    29.88S
VERNON         PTCLDY    83  55  38 SE12      29.85S
ABILENE        CLEAR     81  59  47 SE12      29.85S
ABILENE-DYESS  CLEAR     83  62  48 SE13      29.82F
BRECKENRIDGE   CLEAR     83  57  41 SE9       29.86S
CISCO          CLEAR     81  61  50 SE12      29.88S
EASTLAND       CLEAR     81  62  51 SE7       29.87S
RANGER         CLEAR     77  60  56 SE6       29.89S
MINERAL WELLS  CLEAR     79  60  52 SE7       29.85S
STEPHENVILLE   CLEAR     78  60  53 SE6       29.90F
COMANCHE       CLEAR     80  63  55 SE9       29.88S
BROWNWOOD      PTCLDY    81  59  47 SE10      29.87R
COLEMAN        CLEAR     82  60  48 SE14      29.86S
$$

TXZ143>147-156>162-174-175-240300-
CENTRAL TEXAS

CITY           SKY/WX    TMP DP  RH WIND       PRES   REMARKS
WACO           CLEAR     83  66  56 SE8       29.87R
WACO-TSTC      CLEAR     81  64  57 CALM      29.87R
HILLSBORO      CLEAR     83  63  51 SE7       29.88R
CORSICANA      CLEAR     80  67  64 SE6       29.89R
MEXIA          CLEAR     79  65  62 SE6       29.87S
CAMERON        CLEAR     81  69  67 SE3       29.87R
TEMPLE         CLEAR     81  66  60 E8        29.88R
KILLEEN        CLEAR     81  65  57 E10       29.86R
FORT HOOD      CLEAR     80  65  59 SE8       29.84R
GATESVILLE     CLEAR     81  64  57 VRB3      29.89S
HAMILTON       CLEAR     81  63  53 SE9       29.89F
LAMPASAS       CLEAR     81  68  64 SE5       29.87S
$$

TXZ095>097-106>112-122>126-135>138-148>153-164>167-240300-
EAST TEXAS

CITY           SKY/WX    TMP DP  RH WIND       PRES   REMARKS
PARIS          PTCLDY    79  69  71 E5        29.92R
SULPHUR SPRNGS PTCLDY    76  69  78 CALM      29.93R
GILMER         CLEAR     75  69  80 CALM      29.91R
MINEOLA        PTCLDY    75  70  83 CALM      29.89S
TYLER          CLEAR     77  74  90 CALM      29.90R
LONGVIEW       CLEAR     78  71  79 SE3       29.90R
MARSHALL       CLEAR     75  70  83 CALM      29.93R
ATHENS         CLEAR     77  64  65 CALM      29.89R
PALESTINE      CLEAR     78  71  79 CALM      29.90S
JACKSONVILLE   CLEAR     80  68  68 CALM      29.93R
CENTER         PTCLDY    82  74  78 CALM      29.92R
NACOGDOCHES    CLEAR     75  72  90 E5        29.91R
$$

SUPPLEMENTAL OBSERVATIONS (NWS FORT WORTH AREA)

CITY           SKY/WX    TMP DP  RH WIND       PRES   REMARKS
$$

SUPPLEMENTAL OBSERVATIONS (NWS NORMAN AREA)

CITY           SKY/WX    TMP DP  RH WIND       PRES   REMARKS
GOODLETT         N/A     82  57  43 E14       29.83S
ODELL            N/A     80  61  52 E13       29.86S
CROWELL          N/A     84  60  44 SE15      29.84S
KNOX CITY        N/A     84  56  37 SE16      29.83S
SEYMOUR          N/A     83  56  39 SE14      29.85S
$$

SUPPLEMENTAL OBSERVATIONS (NWS SAN ANGELO AREA)

CITY           SKY/WX    TMP DP  RH WIND       PRES   REMARKS
HASKELL          N/A     83  56  39 SE13      29.84F
THROCKMORTON     N/A     82  60  46 SE10      29.87R
STAMFORD         N/A     83  61  45 E9        29.85S
CLYDE            N/A     81  62  52 SE14      29.88S
$$

SUPPLEMENTAL OBSERVATIONS (NWS SHREVEPORT AREA)

CITY           SKY/WX    TMP DP  RH WIND       PRES   REMARKS
$$

SUPPLEMENTAL OBSERVATIONS ARE A COLLECTION OF AUTOMATED INSTRUMENTS
THAT ARE MAINTAINED BY A VARIETY OF FEDERAL AND STATE AGENCIES.
CERTAIN ELEMENTS...SUCH AS HUMIDITY VALUES AND SUSTAINED WIND
SPEEDS...MAY BE APPROXIMATED.





USA.gov is the U.S. government's official web portal to all federal, state and local government web resources and services.